Home   Weather   Cape Coral   Past weeks

Flag for USA Past Weather in Cape Coral, Florida, USA — Yesterday and Last 2 Weeks

Now
72 °F

Clear.


Feels Like: 75 °F
Forecast: 66 / 81 °F
Wind: 8 mph from East

Location: Page Field

Current Time: Dec 3, 2016 at 8:53:57 pm

Latest Report: Dec 3, 2016 at 7:53 pm


Visibility: 10 mi

Pressure: 30.08 "Hg

Humidity: 66%

Dew Point: 60 °F

Location of Cape CoralLocation

Past Weather in Cape Coral — Graph

°F

Cape Coral Temperature Yesterday

Maximum temperature yesterday: 83 °F (at 2:53 pm)
Minimum temperature yesterday: 65 °F (at 6:53 am)
Average temperature yesterday: 72 °F

High & Low Weather Summary for the Past Weeks

 TemperatureHumidityPressure
High85 °F (Nov 25, 2:53 pm)97% (Dec 1, 3:53 am)30.24 "Hg (Dec 1, 3:53 am)
Low47 °F (Nov 21, 4:53 am)16% (Nov 21, 1:53 pm)29.92 "Hg (Nov 29, 3:53 am)
Average70 °F68%30.08 "Hg
* Reported Nov 18 7:53 pm — Dec 3 7:53 pm, Cape Coral, Weather by CustomWeather, © 2016

Note: Actual official high and low records may vary slightly from our data, if they occured in-between our weather recording intervals... More about our weather records

Advertising

Cape Coral Weather History for the Previous 24 Hours

Scroll right to see more
 ConditionsComfort  
Time TempWeatherWind HumidityBarometerVisibility
7:53 pm
Sat, Dec 3
72 °FClear.8 mph66%30.08 "Hg10 mi
6:53 pm74 °FClear.8 mph62%30.06 "Hg10 mi
5:53 pm76 °FClear.9 mph58%30.04 "Hg10 mi
4:53 pm80 °FSunny.7 mph49%30.03 "Hg10 mi
3:53 pm83 °FSunny.12 mph48%30.02 "Hg10 mi
2:53 pm83 °FSunny.10 mph48%30.02 "Hg10 mi
1:53 pm83 °FSunny.12 mph50%30.03 "Hg10 mi
12:53 pm82 °FSunny.10 mph51%30.05 "Hg10 mi
11:53 am81 °FSunny.15 mph51%30.09 "Hg10 mi
10:53 am78 °FSunny.13 mph54%30.12 "Hg10 mi
9:53 am73 °FSunny.9 mph59%30.13 "Hg10 mi
8:53 am68 °FSunny.12 mph65%30.13 "Hg10 mi
7:53 am62 °FSunny.8 mph75%30.12 "Hg10 mi
6:53 am60 °FClear.9 mph78%30.11 "Hg10 mi
5:53 am61 °FClear.9 mph75%30.11 "Hg10 mi
4:53 am61 °FClear.12 mph72%30.10 "Hg10 mi
3:53 am61 °FClear.10 mph72%30.10 "Hg10 mi
2:53 am61 °FClear.9 mph67%30.10 "Hg10 mi
1:53 am62 °FClear.10 mph65%30.10 "Hg10 mi
12:53 am63 °FClear.12 mph70%30.11 "Hg10 mi
11:53 pm
Fri, Dec 2
65 °FClear.12 mph66%30.12 "Hg10 mi
10:53 pm66 °FClear.12 mph70%30.13 "Hg10 mi
9:53 pm69 °FClear.12 mph73%30.12 "Hg10 mi
8:53 pm70 °FClear.10 mph73%30.11 "Hg10 mi
Weather by CustomWeather, © 2016

See weather overviewHow to use our weather pages